Elizabethton, TN

5:06 AM EDT on October 01, 2016 (GMT -0400)
Elizabethton

Weather History for K0A9 - April, 2013

Change the Weather History Date:

Tuesday, April 30, 2013

  Actual Average (KTRI) Record (KTRI)
Temperature  
Mean Temperature 60 °F 59 °F  
Max Temperature 75 °F 72 °F 89 °F (1942)
Min Temperature 46 °F 47 °F 30 °F (2008)
Degree Days  
Heating Degree Days 4 6  
Month to date heating degree days 304  
Since 1 July heating degree days 4254  
Cooling Degree Days 0 1  
Month to date cooling degree days 10  
Year to date cooling degree days 11  
Growing Degree Days 10 (Base 50)    
Moisture  
Dew Point 51 °F    
Average Humidity 71    
Maximum Humidity 100    
Minimum Humidity 38    
Precipitation  
Precipitation 0.00 in 0.11 in 0.73 in (1953)
Month to date precipitation 3.33  
Year to date precipitation 13.59  
Snow  
Snow 0.00 in 0.00 in - ()
Month to date snowfall 1.1  
Since 1 July snowfall 13.3  
Snow Depth -    
Sea Level Pressure  
Sea Level Pressure 30.06 in    
Wind  
Wind Speed 2 mph (East)    
Max Wind Speed 7 mph    
Max Gust Speed -    
Visibility 10 miles    
Events      
T = Trace of Precipitation, MM = Missing Value Source: NWS Daily Summary

Daily Weather History Graph

Daily Weather History Graph

Search for Another Location

Airport or City:

Trip Planner

Search our weather history database for the weather conditions in past years. The results will help you decide how hot, cold, wet, or windy it might be!

Date:

Astronomy

Apr. 30, 2013 Rise Set
Actual Time 6:36 AM EDT 8:15 PM EDT
Civil Twilight 6:08 AM EDT 8:43 PM EDT
Nautical Twilight 5:35 AM EDT 9:16 PM EDT
Astronomical Twilight 5:00 AM EDT 9:52 PM EDT
Moon 12:36 AM EDT (4/30) 11:05 AM EDT (4/30)
Length of Visible Light 14h 34m
Length of Day
13h 39m
Waning Gibbous, 70% of the Moon is Illuminated
Apr 30
Waning Gibbous
May 2
Last Quarter
May 9
New
May 18
First Quarter
May 25
Full

Hourly Weather History & Observations

Time (EDT) Temp. Dew Point Humidity Pressure Visibility Wind Dir Wind Speed Gust Speed Precip Events Conditions
12:15 AM 51.8 °F 50.0 °F 94% 30.02 in 10.0 mi Calm Calm - N/A   Mostly Cloudy
12:35 AM 51.8 °F 48.2 °F 88% 30.02 in 10.0 mi Calm Calm - N/A   Scattered Clouds
12:55 AM 50.0 °F 48.2 °F 94% 30.02 in 10.0 mi Calm Calm - N/A   Mostly Cloudy
1:15 AM 51.8 °F 50.0 °F 94% 30.02 in 10.0 mi Calm Calm - N/A   Overcast
1:35 AM 51.8 °F 50.0 °F 94% 30.02 in 10.0 mi Calm Calm - N/A   Mostly Cloudy
1:55 AM 51.8 °F 48.2 °F 88% 30.01 in 10.0 mi Calm Calm - N/A   Clear
2:15 AM 50.0 °F 48.2 °F 94% 30.01 in 10.0 mi Calm Calm - N/A   Clear
2:35 AM 50.0 °F 48.2 °F 94% 30.01 in 10.0 mi Calm Calm - N/A   Clear
2:55 AM 48.2 °F 48.2 °F 100% 30.01 in 10.0 mi Calm Calm - N/A   Clear
3:15 AM 48.2 °F 48.2 °F 100% 30.01 in 10.0 mi Calm Calm - N/A   Clear
3:35 AM 48.2 °F 48.2 °F 100% 30.01 in 10.0 mi Calm Calm - N/A   Clear
3:55 AM 48.2 °F 48.2 °F 100% 30.01 in 10.0 mi Calm Calm - N/A   Partly Cloudy
4:15 AM 50.0 °F 48.2 °F 94% 30.02 in 10.0 mi ENE 4.6 mph - N/A   Scattered Clouds
4:35 AM 51.8 °F 50.0 °F 94% 30.02 in 10.0 mi NE 3.5 mph - N/A   Partly Cloudy
4:55 AM 51.8 °F 50.0 °F 94% 30.03 in 10.0 mi Calm Calm - N/A   Clear
5:15 AM 48.2 °F 48.2 °F 100% 30.03 in 10.0 mi Calm Calm - N/A   Clear
5:35 AM 48.2 °F 48.2 °F 100% 30.04 in 7.0 mi Calm Calm - N/A   Clear
5:55 AM 46.4 °F 46.4 °F 100% 30.04 in 10.0 mi Calm Calm - N/A   Clear
6:15 AM 46.4 °F 46.4 °F 100% 30.05 in 5.0 mi Calm Calm - N/A   Clear
6:35 AM 46.4 °F 46.4 °F 100% 30.06 in 5.0 mi Calm Calm - N/A   Clear
6:55 AM 46.4 °F 46.4 °F 100% 30.06 in 3.0 mi Calm Calm - N/A   Clear
7:15 AM 46.4 °F 46.4 °F 100% 30.07 in 6.0 mi Calm Calm - N/A   Clear
7:35 AM 48.2 °F 48.2 °F 100% 30.08 in 6.0 mi Calm Calm - N/A   Clear
7:55 AM 53.6 °F 51.8 °F 94% 30.09 in 10.0 mi East 3.5 mph - N/A   Clear
8:15 AM 55.4 °F 53.6 °F 94% 30.09 in 10.0 mi ENE 5.8 mph - N/A   Clear
8:35 AM 57.2 °F 53.6 °F 88% 30.09 in 10.0 mi ENE 3.5 mph - N/A   Clear
8:55 AM 59.0 °F 53.6 °F 82% 30.09 in 10.0 mi ENE 4.6 mph - N/A   Clear
9:15 AM 62.6 °F 55.4 °F 77% 30.10 in 10.0 mi Calm Calm - N/A   Clear
9:35 AM 64.4 °F 55.4 °F 73% 30.10 in 10.0 mi East 5.8 mph - N/A   Clear
9:55 AM 66.2 °F 55.4 °F 68% 30.09 in 10.0 mi Variable 3.5 mph - N/A   Clear
10:15 AM 66.2 °F 53.6 °F 64% 30.09 in 10.0 mi Variable 3.5 mph - N/A   Clear
10:35 AM 66.2 °F 53.6 °F 64% 30.09 in 10.0 mi SE 5.8 mph - N/A   Clear
10:55 AM 68.0 °F 55.4 °F 64% 30.08 in 10.0 mi Variable 5.8 mph - N/A   Clear
11:15 AM 69.8 °F 53.6 °F 56% 30.08 in 10.0 mi East 5.8 mph - N/A   Clear
11:35 AM 69.8 °F 53.6 °F 56% 30.08 in 10.0 mi Variable 5.8 mph - N/A   Clear
11:55 AM 71.6 °F 55.4 °F 57% 30.08 in 10.0 mi Variable 4.6 mph - N/A   Clear
12:15 PM 71.6 °F 53.6 °F 53% 30.07 in 10.0 mi Calm Calm - N/A   Clear
12:35 PM 73.4 °F 53.6 °F 50% 30.07 in 10.0 mi East 6.9 mph - N/A   Partly Cloudy
12:55 PM 73.4 °F 53.6 °F 50% 30.07 in 10.0 mi Variable 4.6 mph - N/A   Partly Cloudy
1:15 PM 71.6 °F 51.8 °F 50% 30.07 in 10.0 mi Calm Calm - N/A   Mostly Cloudy
1:35 PM 71.6 °F 53.6 °F 53% 30.07 in 10.0 mi WNW 4.6 mph - N/A   Overcast
1:55 PM 71.6 °F 51.8 °F 50% 30.06 in 10.0 mi Calm Calm - N/A   Overcast
2:15 PM 71.6 °F 53.6 °F 53% 30.05 in 10.0 mi SE 6.9 mph - N/A   Mostly Cloudy
2:35 PM 73.4 °F 51.8 °F 47% 30.04 in 10.0 mi SSW 4.6 mph - N/A   Partly Cloudy
2:55 PM 75.2 °F 53.6 °F 47% 30.04 in 10.0 mi Variable 3.5 mph - N/A   Partly Cloudy
3:15 PM 75.2 °F 51.8 °F 44% 30.03 in 10.0 mi East 5.8 mph - N/A   Scattered Clouds
3:35 PM 75.2 °F 48.2 °F 38% 30.03 in 10.0 mi NNE 3.5 mph - N/A   Mostly Cloudy
3:55 PM 73.4 °F 51.8 °F 47% 30.02 in 10.0 mi Calm Calm - N/A   Overcast
4:15 PM 73.4 °F 51.8 °F 47% 30.02 in 10.0 mi ENE 3.5 mph - N/A   Overcast
4:35 PM 73.4 °F 51.8 °F 47% 30.02 in 10.0 mi Calm Calm - N/A   Mostly Cloudy
4:55 PM 75.2 °F 48.2 °F 38% 30.03 in 10.0 mi Calm Calm - N/A   Mostly Cloudy
5:15 PM 75.2 °F 50.0 °F 41% 30.03 in 10.0 mi Calm Calm - N/A   Overcast
5:35 PM 73.4 °F 51.8 °F 47% 30.04 in 10.0 mi Calm Calm - N/A   Overcast
5:55 PM 73.4 °F 51.8 °F 47% 30.05 in 10.0 mi East 6.9 mph - N/A   Mostly Cloudy
6:15 PM 71.6 °F 51.8 °F 50% 30.06 in 10.0 mi East 4.6 mph - N/A   Overcast
6:35 PM 71.6 °F 51.8 °F 50% 30.06 in 10.0 mi East 6.9 mph - N/A   Overcast
6:55 PM 71.6 °F 51.8 °F 50% 30.07 in 10.0 mi ESE 3.5 mph - N/A   Mostly Cloudy
7:15 PM 71.6 °F 53.6 °F 53% 30.07 in 10.0 mi ENE 3.5 mph - N/A   Overcast
7:35 PM 71.6 °F 51.8 °F 50% 30.08 in 10.0 mi ESE 4.6 mph - N/A   Overcast
7:55 PM 69.8 °F 51.8 °F 53% 30.09 in 10.0 mi ESE 6.9 mph - N/A   Overcast
8:15 PM 69.8 °F 51.8 °F 53% 30.10 in 10.0 mi ESE 6.9 mph - N/A   Overcast
8:35 PM 68.0 °F 51.8 °F 56% 30.11 in 10.0 mi East 6.9 mph - N/A   Overcast
9:15 PM 66.2 °F 51.8 °F 60% 30.12 in 10.0 mi East 4.6 mph - N/A   Scattered Clouds
9:35 PM 64.4 °F 53.6 °F 68% 30.13 in 10.0 mi East 6.9 mph - N/A   Clear
9:55 PM 64.4 °F 53.6 °F 68% 30.15 in 10.0 mi SE 4.6 mph - N/A   Clear
10:15 PM 64.4 °F 53.6 °F 68% 30.15 in 10.0 mi East 4.6 mph - N/A   Clear
10:35 PM 62.6 °F 53.6 °F 72% 30.16 in 10.0 mi Variable 4.6 mph - N/A   Clear
10:55 PM 62.6 °F 53.6 °F 72% 30.16 in 10.0 mi East 5.8 mph - N/A   Clear
11:15 PM 62.6 °F 53.6 °F 72% 30.15 in 10.0 mi ENE 5.8 mph - N/A   Clear
11:35 PM 62.6 °F 53.6 °F 72% 30.16 in 10.0 mi East 5.8 mph - N/A   Clear
11:55 PM 62.6 °F 51.8 °F 68% 30.16 in 10.0 mi ENE 6.9 mph - N/A   Clear